This is the latest recevied weather packets stored in our database for station/object DG4DAZ-6. If no packets are shown the sender has not sent any weather packets the latest 10 day(s).
| Time | Temp. | Humidity | Pressure | Rain* | Wind** | Luminosity | Snow |
|---|---|---|---|---|---|---|---|
| 1777788083 | 16.11° C | 54% | 1011.2 hPa | 0 mm | - | 179 W/m² | - |
| 1777787483 | 15.56° C | 58% | 1011.1 hPa | 0 mm | - | 193 W/m² | - |
| 1777786883 | 15° C | 58% | 1011.2 hPa | 0 mm | - | 115 W/m² | - |
| 1777786284 | 14.44° C | 60% | 1011.3 hPa | 0 mm | - | 34 W/m² | - |
| 1777785683 | 14.44° C | 61% | 1011.1 hPa | 0 mm | - | 33 W/m² | - |
| 1777785083 | 14.44° C | 61% | 1011.3 hPa | 0 mm | - | 24 W/m² | - |
| 1777784484 | 14.44° C | 61% | 1011.1 hPa | 0 mm | - | 18 W/m² | - |
| 1777783883 | 14.44° C | 59% | 1011.1 hPa | 0 mm | - | 14 W/m² | - |
| 1777783284 | 14.44° C | 59% | 1011.2 hPa | 0 mm | - | 12 W/m² | - |
| 1777782684 | 14.44° C | 58% | 1011.1 hPa | 0 mm | - | 11 W/m² | - |
| 1777782083 | 15° C | 57% | 1011.1 hPa | 0 mm | - | 7 W/m² | - |
| 1777781483 | 15° C | 56% | 1011.2 hPa | 0 mm | - | 0 W/m² | - |
| 1777780882 | 15° C | 55% | 1011.2 hPa | 0 mm | - | 0 W/m² | - |
| 1777780284 | 15° C | 56% | 1011.3 hPa | 0 mm | - | 0 W/m² | - |
| 1777779684 | 15° C | 55% | 1011.4 hPa | 0 mm | - | 0 W/m² | - |
| 1777779083 | 15° C | 56% | 1011.4 hPa | 0 mm | - | 0 W/m² | - |
| 1777778483 | 15° C | 56% | 1011.4 hPa | 0 mm | - | 0 W/m² | - |
| 1777777884 | 15.56° C | 55% | 1011.4 hPa | 0 mm | - | 0 W/m² | - |
| 1777777282 | 15.56° C | 55% | 1011.6 hPa | 0 mm | - | 0 W/m² | - |
| 1777776683 | 15.56° C | 56% | 1011.6 hPa | 0 mm | - | 0 W/m² | - |
| 1777776083 | 15.56° C | 56% | 1011.6 hPa | 0 mm | - | 0 W/m² | - |
| 1777775484 | 15.56° C | 57% | 1011.7 hPa | 0 mm | - | 0 W/m² | - |
| 1777774883 | 15.56° C | 58% | 1011.7 hPa | 0 mm | - | 0 W/m² | - |
| 1777774283 | 15.56° C | 58% | 1011.7 hPa | 0 mm | - | 0 W/m² | - |
| 1777773682 | 15.56° C | 60% | 1011.7 hPa | 0 mm | - | 0 W/m² | - |
* Rain latest hour (hover to see other rain measurements)
** Current wind speed in m/s (hover to see current wind gust speed)